Location: Aydie
(43.5695°N, 0.1043°W)
Time: 11:37:43
(UTC+00:00)

Cosmos 1975 Rocket - Pass Details

Date: 17 November 2025
Orbit: 598 x 626 km, 82.5° (Epoch: 11 December)

Event Time Altitude Azimuth Distance (km) Brightness Sun altitude
Rises 17:27:30 0° 351° (N) 2,870 6.4 -9.9°
Reaches altitude 10° 17:29:43 10° 351° (N) 1,966 5.6 -10.3°
Maximum altitude 17:34:05 86° 264° (W) 618 3.1 -11.1°
Drops below altitude 10° 17:38:27 10° 175° (S) 1,968 5.8 -11.8°
Sets 17:40:40 0° 174° (S) 2,873 6.6 -12.2°
